Location: Seasalter
(51.3333°N, 1.0167°E)
Time: 15:33:15
(UTC+00:00)

ATLAS 5 CENTAUR R/B - Pass Details

Date: 23 April 2024
Orbit: 421 x 1169 km, 63.3° (Epoch: 22 May)

Event Time Altitude Azimuth Distance (km) Brightness Sun altitude
Rises 23:37:54 0° 314° (NW) 2,736 5.6 -25.6°
Reaches altitude 10° 23:40:12 10° 327° (NNW) 1,942 4.9 -25.6°
Maximum altitude 23:44:02 28° 27° (NNE) 1,268 3.6 -25.7°
Drops below altitude 10° 23:48:36 10° 87° (E) 2,348 4.5 -25.7°
Sets 23:51:38 0° 98° (E) 3,427 5.3 -25.7°
